Location: Blackfoot
(53.5367°N, 112.7800°W)
Time: 09:10:53
(UTC-06:00)

Amateur Radio Satellites - All Passes

Search period start: 26 July 2014 08:40
Search period end: 27 July 2014 08:40
Location: Blackfoot, 53.5367°N, 112.7800°W

Satellite Date Start Highest point End Downlink Frequencies (MHz)
Time Altitude Azimuth
Saudisat 1A 26 Jul 08:48:21 08:51:31 19° 115° (ESE) 08:54:41 436.775 MHz
MaSat-1 26 Jul 08:49:12 08:53:43 29° 251° (WSW) 08:58:09 437.345 MHz
SO-67 26 Jul 08:50:17 08:53:47 70° 102° (ESE) 08:57:15 435.3500 MHz FM
STRAND 1 26 Jul 08:51:35 08:54:56 17° 273° (W) 08:58:17 ?
Sapphire 26 Jul 08:56:46 09:01:34 30° 28° (NNE) 09:06:22 437.095 MHz 1200 baud AX-25 AFSK
Hamsat 26 Jul 09:29:12 09:31:47 16° 304° (NW) 09:34:23 145.90 MHz
AO-7 26 Jul 09:29:14 09:35:02 22° 327° (NNW) 09:40:49 29.400 - 29.500 MHz
JAS-2 26 Jul 09:29:59 09:35:46 35° 303° (WNW) 09:40:56 435.800 - 435.900 CW/SSB, 435.910 FM
PCSat 26 Jul 09:30:35 09:35:46 42° 37° (NE) 09:40:56 145.825 MHz
JAS-1B 26 Jul 09:39:19 09:42:59 13° 354° (N) 09:46:37 435.800 - 435.900 CW/SSB
HO-68 26 Jul 09:44:50 09:50:55 29° 91° (E) 09:56:57 435.675 MHz FM
UKube-1 26 Jul 09:54:00 09:56:58 18° 90° (E) 09:59:54 145.840 MHz, 145.915 MHz
KITSAT 1 26 Jul 10:18:32 10:26:22 49° 330° (NNW) 10:34:13 435.175 FM
SO-67 26 Jul 10:24:34 10:26:25 14° 301° (WNW) 10:28:15 435.3500 MHz FM
Saudisat 1A 26 Jul 10:26:10 10:30:36 84° 316° (NW) 10:35:04 436.775 MHz
Sapphire 26 Jul 10:40:12 10:45:40 90° 232° (SW) 10:51:07 437.095 MHz 1200 baud AX-25 AFSK
Oscar 11 26 Jul 10:41:54 10:45:38 27° 94° (E) 10:49:21 145.825 FM, Beacon 2401.500 USB
FUNcube-1 26 Jul 10:55:48 10:58:20 16° 88° (E) 11:00:52 145.950 - 145.970 MHz USB
PCSat 26 Jul 11:14:06 11:19:23 54° 239° (WSW) 11:24:39 145.825 MHz
JAS-2 26 Jul 11:17:18 11:18:55 11° 328° (NNW) 11:20:29 435.800 - 435.900 CW/SSB, 435.910 FM
AO-7 26 Jul 11:21:44 11:24:49 13° 354° (N) 11:27:55 29.400 - 29.500 MHz
JAS-1B 26 Jul 11:24:32 11:29:37 16° 21° (NNE) 11:34:44 435.800 - 435.900 CW/SSB
UKube-1 26 Jul 11:29:18 11:33:40 70° 289° (WNW) 11:38:00 145.840 MHz, 145.915 MHz
HO-68 26 Jul 11:32:10 11:39:20 76° 293° (WNW) 11:46:27 435.675 MHz FM
Saudisat 1A 26 Jul 12:06:57 12:10:47 27° 338° (NNW) 12:14:37 436.775 MHz
Oscar 19 26 Jul 12:10:12 12:13:14 16° 50° (NE) 12:16:17 437.125 CW, 437.150 USB
KITSAT 1 26 Jul 12:16:26 12:23:42 34° 358° (N) 12:30:56 435.175 FM
Oscar 11 26 Jul 12:17:53 12:22:00 43° 293° (WNW) 12:26:06 145.825 FM, Beacon 2401.500 USB
Sapphire 26 Jul 12:24:33 12:28:26 20° 252° (WSW) 12:32:18 437.095 MHz 1200 baud AX-25 AFSK
FUNcube-1 26 Jul 12:31:06 12:35:16 72° 288° (WNW) 12:39:26 145.950 - 145.970 MHz USB
Oscar 16 26 Jul 12:36:43 12:40:46 24° 56° (NE) 12:44:50 437.025 USB, Beacon 2401.1428
AO-Echo 26 Jul 12:48:38 12:52:04 18° 51° (NE) 12:55:31 ?
ITAMSAT 1 26 Jul 12:52:25 12:55:55 18° 51° (NE) 12:59:24 435.822 SSB
RS-15 26 Jul 12:53:33 12:59:11 16° 94° (E) 13:04:47 29.354 - 29.394 USB, Beacon 29.352 USB
PCSat 26 Jul 13:00:38 13:01:38 11° 259° (W) 13:02:38 145.825 MHz
UKube-1 26 Jul 13:07:05 13:09:08 13° 309° (NW) 13:11:10 145.840 MHz, 145.915 MHz
JAS-1B 26 Jul 13:09:15 13:17:11 33° 46° (NE) 13:25:29 435.800 - 435.900 CW/SSB
AO-7 26 Jul 13:09:45 13:14:20 16° 22° (NNE) 13:18:55 29.400 - 29.500 MHz
AO-27 26 Jul 13:10:03 13:14:09 24° 55° (NE) 13:18:16 436.795 MHz FM
Uribyol 2 26 Jul 13:11:43 13:15:53 25° 56° (NE) 13:20:02 436.500 FM
Gurwin Techsat 1B 26 Jul 13:18:06 13:20:59 15° 47° (NE) 13:23:51 435.225 FM
HO-68 26 Jul 13:20:38 13:26:05 24° 315° (NW) 13:31:31 435.675 MHz FM
Oscar 19 26 Jul 13:46:41 13:51:46 71° 70° (ENE) 13:56:54 437.125 CW, 437.150 USB
Saudisat 1A 26 Jul 13:48:22 13:51:39 20° 2° (N) 13:54:56 436.775 MHz
FUNcube-1 26 Jul 14:09:15 14:10:58 12° 307° (NW) 14:12:41 145.950 - 145.970 MHz USB
KITSAT 1 26 Jul 14:13:22 14:21:08 46° 27° (NNE) 14:28:50 435.175 FM
Oscar 16 26 Jul 14:14:36 14:19:43 71° 256° (WSW) 14:24:52 437.025 USB, Beacon 2401.1428
AO-Echo 26 Jul 14:24:45 14:30:04 75° 71° (ENE) 14:35:24 ?
ITAMSAT 1 26 Jul 14:29:29 14:34:42 81° 72° (ENE) 14:39:57 435.822 SSB
SO-50 26 Jul 14:32:25 14:36:43 48° 126° (SE) 14:41:09 436.795 FM
TMSAT-1 26 Jul 14:32:50 14:37:34 34° 61° (ENE) 14:42:20 436.925 FM
Uosat F 26 Jul 14:43:59 14:46:45 15° 48° (NE) 14:49:30 435.120 FM
AO-27 26 Jul 14:48:00 14:53:13 74° 256° (WSW) 14:58:29 436.795 MHz FM
Uribyol 2 26 Jul 14:49:46 14:54:57 70° 256° (WSW) 15:00:10 436.500 FM
Gurwin Techsat 1B 26 Jul 14:54:46 15:00:00 62° 68° (ENE) 15:05:16 435.225 FM
JAS-1B 26 Jul 14:57:19 15:06:25 82° 69° (ENE) 15:16:25 435.800 - 435.900 CW/SSB
AO-7 26 Jul 14:57:29 15:04:52 37° 48° (NE) 15:12:14 29.400 - 29.500 MHz
RS-15 26 Jul 14:58:14 15:08:52 57° 119° (ESE) 15:19:23 29.354 - 29.394 USB, Beacon 29.352 USB
UOSAT-12 26 Jul 15:11:03 15:13:21 14° 110° (ESE) 15:15:40 437.025 FM, 437.400 FM
Oscar 19 26 Jul 15:27:46 15:31:39 22° 270° (W) 15:35:34 437.125 CW, 437.150 USB
Saudisat 1A 26 Jul 15:28:30 15:32:28 31° 26° (NNE) 15:36:25 436.775 MHz
Oscar 16 26 Jul 15:57:53 16:00:03 13° 277° (W) 16:02:14 437.025 USB, Beacon 2401.1428
AO-Echo 26 Jul 16:05:22 16:09:24 22° 271° (W) 16:13:27 ?
KITSAT 1 26 Jul 16:09:08 16:17:15 80° 232° (SW) 16:25:19 435.175 FM
ITAMSAT 1 26 Jul 16:11:10 16:14:51 19° 272° (W) 16:18:34 435.822 SSB
TMSAT-1 26 Jul 16:12:15 16:17:23 49° 261° (W) 16:22:33 436.925 FM
SO-50 26 Jul 16:13:04 16:17:24 42° 328° (NNW) 16:21:50 436.795 FM
Uosat F 26 Jul 16:19:40 16:24:40 65° 69° (ENE) 16:29:41 435.120 FM
JAS-2 26 Jul 16:20:10 16:24:59 19° 44° (NE) 16:29:33 435.800 - 435.900 CW/SSB, 435.910 FM
AO-27 26 Jul 16:31:05 16:33:41 14° 276° (W) 16:36:17 436.795 MHz FM
Uribyol 2 26 Jul 16:33:11 16:35:25 13° 276° (W) 16:37:40 436.500 FM
Gurwin Techsat 1B 26 Jul 16:35:59 16:40:23 26° 269° (W) 16:44:50 435.225 FM
UOSAT-12 26 Jul 16:48:04 16:52:41 69° 130° (SE) 16:57:24 437.025 FM, 437.400 FM
AO-7 26 Jul 16:48:40 16:57:04 80° 251° (WSW) 17:05:30 29.400 - 29.500 MHz
JAS-1B 26 Jul 16:49:50 16:57:54 35° 273° (W) 17:06:41 435.800 - 435.900 CW/SSB
OPAL 26 Jul 16:55:44 16:59:55 26° 95° (E) 17:04:07 ?
Saudisat 1A 26 Jul 17:08:03 17:12:30 78° 228° (SW) 17:16:54 436.775 MHz
RS-15 26 Jul 17:10:14 17:21:11 66° 327° (NNW) 17:32:08 29.354 - 29.394 USB, Beacon 29.352 USB
Hamsat 26 Jul 17:17:01 17:20:10 21° 59° (ENE) 17:23:21 145.90 MHz
SO-50 26 Jul 17:55:26 17:59:03 22° 352° (N) 18:02:44 436.795 FM
Uosat F 26 Jul 17:59:55 18:03:55 23° 269° (W) 18:07:56 435.120 FM
JAS-2 26 Jul 18:01:16 18:08:47 57° 65° (ENE) 18:15:45 435.800 - 435.900 CW/SSB, 435.910 FM
KITSAT 1 26 Jul 18:05:26 18:11:33 24° 255° (WSW) 18:17:38 435.175 FM
UOSAT-12 26 Jul 18:28:54 18:33:13 35° 333° (NNW) 18:37:36 437.025 FM, 437.400 FM
OPAL 26 Jul 18:34:13 18:39:11 60° 294° (WNW) 18:44:11 ?
HO-68 26 Jul 18:36:46 18:40:38 16° 34° (NNE) 18:44:30 435.675 MHz FM
AO-7 26 Jul 18:45:00 18:51:13 23° 273° (W) 18:57:29 29.400 - 29.500 MHz
Saudisat 1A 26 Jul 18:48:57 18:51:24 15° 248° (WSW) 18:53:49 436.775 MHz
Hamsat 26 Jul 18:51:41 18:55:49 59° 259° (W) 19:00:00 145.90 MHz
STRAND 1 26 Jul 19:14:51 19:18:27 19° 88° (E) 19:22:01 ?
RS-15 26 Jul 19:25:09 19:35:37 47° 359° (N) 19:46:13 29.354 - 29.394 USB, Beacon 29.352 USB
SO-67 26 Jul 19:29:22 19:32:48 64° 73° (ENE) 19:36:17 435.3500 MHz FM
SO-50 26 Jul 19:37:09 19:41:01 25° 16° (NNE) 19:44:56 436.795 FM
JAS-2 26 Jul 19:46:38 19:53:59 44° 264° (W) 20:00:53 435.800 - 435.900 CW/SSB, 435.910 FM
UOSAT-12 26 Jul 20:10:55 20:14:36 22° 356° (N) 20:18:17 437.025 FM, 437.400 FM
OPAL 26 Jul 20:14:30 20:17:11 15° 315° (NW) 20:19:53 ?
HO-68 26 Jul 20:20:00 20:26:41 44° 57° (ENE) 20:33:22 435.675 MHz FM
STRAND 1 26 Jul 20:53:08 20:58:17 80° 288° (WNW) 21:03:23 ?
UKube-1 26 Jul 20:55:16 20:59:14 35° 64° (ENE) 21:03:13 145.840 MHz, 145.915 MHz
SO-67 26 Jul 21:04:38 21:06:18 13° 272° (W) 21:07:59 435.3500 MHz FM
SO-50 26 Jul 21:17:46 21:22:26 60° 39° (NE) 21:27:10 436.795 FM
RS-15 26 Jul 21:39:17 21:50:11 63° 31° (NNE) 22:01:19 29.354 - 29.394 USB, Beacon 29.352 USB
Oscar 11 26 Jul 21:42:56 21:47:04 47° 68° (ENE) 21:51:13 145.825 FM, Beacon 2401.500 USB
UOSAT-12 26 Jul 21:51:59 21:56:06 28° 21° (NNE) 22:00:13 437.025 FM, 437.400 FM
FUNcube-1 26 Jul 21:58:04 22:01:46 29° 63° (ENE) 22:05:26 145.950 - 145.970 MHz USB
HO-68 26 Jul 22:07:19 22:14:19 54° 259° (W) 22:21:22 435.675 MHz FM
UKube-1 26 Jul 22:31:25 22:35:27 35° 263° (W) 22:39:30 145.840 MHz, 145.915 MHz
STRAND 1 26 Jul 22:33:25 22:36:46 18° 309° (NW) 22:40:06 ?
MaSat-1 26 Jul 22:46:06 22:50:08 43° 114° (ESE) 22:54:45 437.345 MHz
SO-50 26 Jul 22:58:38 23:02:50 32° 239° (WSW) 23:07:04 436.795 FM
Oscar 11 26 Jul 23:19:56 23:23:30 25° 267° (W) 23:27:04 145.825 FM, Beacon 2401.500 USB
UOSAT-12 26 Jul 23:32:10 23:36:56 78° 43° (NE) 23:41:40 437.025 FM, 437.400 FM
FUNcube-1 26 Jul 23:34:01 23:38:06 40° 262° (W) 23:42:08 145.950 - 145.970 MHz USB
RS-15 26 Jul 23:52:02 00:02:44 62° 239° (WSW) 00:13:47 29.354 - 29.394 USB, Beacon 29.352 USB
HO-68 27 Jul 00:01:02 00:03:46 12° 281° (W) 00:06:29 435.675 MHz FM
MaSat-1 27 Jul 00:23:21 00:27:34 40° 318° (NW) 00:32:19 437.345 MHz
UOSAT-12 27 Jul 01:12:57 01:16:39 23° 244° (WSW) 01:20:20 437.025 FM, 437.400 FM
Lituanica SAT-1 27 Jul 01:27:49 01:29:31 26° 163° (SSE) 01:31:13 437.275 MHz beacon
Sapphire 27 Jul 01:29:41 01:33:40 21° 109° (ESE) 01:37:40 437.095 MHz 1200 baud AX-25 AFSK
ISS 27 Jul 01:41:29 01:43:51 18° 146° (SE) 01:46:15 145.800 FM
Oscar 19 27 Jul 01:52:53 01:56:00 16° 86° (E) 01:59:06 437.125 CW, 437.150 USB
PCSat 27 Jul 02:02:03 02:07:00 37° 116° (ESE) 02:11:58 145.825 MHz
MaSat-1 27 Jul 02:03:14 02:06:20 17° 342° (NNW) 02:09:36 437.345 MHz
RS-15 27 Jul 02:06:03 02:12:43 19° 263° (W) 02:19:32 29.354 - 29.394 USB, Beacon 29.352 USB
Oscar 16 27 Jul 02:20:06 02:24:26 26° 92° (E) 02:28:44 437.025 USB, Beacon 2401.1428
AO-Echo 27 Jul 02:27:00 02:30:07 16° 85° (E) 02:33:09 ?
ITAMSAT 1 27 Jul 02:36:50 02:40:21 18° 88° (E) 02:43:51 435.822 SSB
JAS-1B 27 Jul 02:37:14 02:44:33 24° 79° (E) 02:51:14 435.800 - 435.900 CW/SSB
OPAL 27 Jul 02:40:03 02:43:32 20° 50° (NE) 02:47:02 ?
AO-27 27 Jul 02:54:59 02:59:16 25° 92° (E) 03:03:31 436.795 MHz FM
Uribyol 2 27 Jul 02:56:21 03:00:42 27° 92° (E) 03:05:01 436.500 FM
Lituanica SAT-1 27 Jul 02:59:33 03:01:25 45° 182° (S) 03:03:17 437.275 MHz beacon
Gurwin Techsat 1B 27 Jul 03:05:40 03:08:44 15° 85° (E) 03:11:46 435.225 FM
Sapphire 27 Jul 03:11:02 03:16:28 87° 310° (NW) 03:21:56 437.095 MHz 1200 baud AX-25 AFSK
ISS 27 Jul 03:16:49 03:20:05 49° 165° (SSE) 03:23:21 145.800 FM
Oscar 19 27 Jul 03:30:56 03:36:09 86° 106° (ESE) 03:41:20 437.125 CW, 437.150 USB
MaSat-1 27 Jul 03:43:09 03:45:44 14° 6° (N) 03:48:22 437.345 MHz
PCSat 27 Jul 03:44:58 03:50:18 55° 318° (NW) 03:55:40 145.825 MHz
Oscar 16 27 Jul 03:59:05 04:04:09 59° 292° (WNW) 04:09:13 437.025 USB, Beacon 2401.1428
AO-Echo 27 Jul 04:04:29 04:09:43 87° 106° (ESE) 04:14:44 ?
ITAMSAT 1 27 Jul 04:15:20 04:20:33 85° 288° (WNW) 04:25:44 435.822 SSB
OPAL 27 Jul 04:16:52 04:21:50 89° 70° (ENE) 04:26:50 ?
TMSAT-1 27 Jul 04:21:19 04:26:22 43° 97° (E) 04:31:23 436.925 FM
Uosat F 27 Jul 04:22:52 04:24:52 12° 84° (E) 04:26:52 435.120 FM
JAS-1B 27 Jul 04:26:57 04:36:49 76° 104° (ESE) 04:45:26 435.800 - 435.900 CW/SSB
Lituanica SAT-1 27 Jul 04:31:43 04:33:16 20° 201° (SSW) 04:34:48 437.275 MHz beacon
AO-27 27 Jul 04:34:04 04:39:12 62° 292° (WNW) 04:44:18 436.795 MHz FM
Uribyol 2 27 Jul 04:35:28 04:40:33 58° 292° (WNW) 04:45:36 436.500 FM
AO-7 27 Jul 04:43:36 04:50:09 25° 88° (E) 04:56:38 29.400 - 29.500 MHz
Gurwin Techsat 1B 27 Jul 04:44:13 04:49:35 81° 105° (ESE) 04:54:54 435.225 FM
ISS 27 Jul 04:53:17 04:56:38 62° 185° (S) 04:59:58 145.800 FM
Sapphire 27 Jul 04:55:52 05:00:37 30° 333° (NNW) 05:05:22 437.095 MHz 1200 baud AX-25 AFSK
STRAND 1 27 Jul 05:01:25 05:03:28 12° 45° (NE) 05:05:31 ?
Oscar 19 27 Jul 05:11:10 05:14:55 21° 306° (NW) 05:18:41 437.125 CW, 437.150 USB
MaSat-1 27 Jul 05:20:48 05:24:56 23° 30° (NNE) 05:29:08 437.345 MHz
PCSat 27 Jul 05:30:31 05:34:51 24° 342° (NNW) 05:39:13 145.825 MHz
Oscar 16 27 Jul 05:40:01 05:42:33 14° 313° (NW) 05:45:05 437.025 USB, Beacon 2401.1428
AO-Echo 27 Jul 05:44:08 05:47:52 20° 307° (NW) 05:51:30 ?
ITAMSAT 1 27 Jul 05:55:50 05:59:23 19° 308° (NW) 06:02:55 435.822 SSB
OPAL 27 Jul 05:58:23 06:01:27 16° 270° (W) 06:04:32 ?
Uosat F 27 Jul 05:59:34 06:04:38 70° 104° (ESE) 06:09:37 435.120 FM
TMSAT-1 27 Jul 06:01:24 06:06:17 38° 298° (WNW) 06:11:08 436.925 FM
AO-27 27 Jul 06:15:02 06:17:48 15° 313° (NW) 06:20:33 436.795 MHz FM
Uribyol 2 27 Jul 06:16:31 06:19:04 14° 313° (NW) 06:21:37 436.500 FM
JAS-1B 27 Jul 06:17:46 06:26:38 41° 308° (NW) 06:34:43 435.800 - 435.900 CW/SSB
Gurwin Techsat 1B 27 Jul 06:24:58 06:29:02 23° 306° (NW) 06:33:04 435.225 FM
ISS 27 Jul 06:30:02 06:33:03 31° 205° (SSW) 06:36:05 145.800 FM
Hamsat 27 Jul 06:31:45 06:34:37 17° 88° (E) 06:37:28 145.90 MHz
AO-7 27 Jul 06:35:45 06:44:10 85° 111° (ESE) 06:52:31 29.400 - 29.500 MHz
STRAND 1 27 Jul 06:36:38 06:41:36 51° 66° (ENE) 06:46:35 ?
Sapphire 27 Jul 06:41:49 06:45:44 20° 358° (N) 06:49:39 437.095 MHz 1200 baud AX-25 AFSK
KITSAT 1 27 Jul 06:45:23 06:52:00 29° 108° (ESE) 06:58:37 435.175 FM
JAS-2 27 Jul 06:50:14 06:55:15 25° 86° (E) 06:59:49 435.800 - 435.900 CW/SSB, 435.910 FM
MaSat-1 27 Jul 06:57:56 07:03:14 67° 51° (NE) 07:08:29 437.345 MHz
PCSat 27 Jul 07:16:07 07:20:08 20° 8° (N) 07:24:08 145.825 MHz
Uosat F 27 Jul 07:39:02 07:43:00 24° 304° (NW) 07:46:58 435.120 FM
Hamsat 27 Jul 08:06:47 08:11:03 69° 288° (WNW) 08:15:21 145.90 MHz
JAS-1B 27 Jul 08:08:39 08:14:35 19° 333° (NNW) 08:20:19 435.800 - 435.900 CW/SSB
STRAND 1 27 Jul 08:16:32 08:21:02 30° 266° (W) 08:25:35 ?
SO-67 27 Jul 08:20:15 08:23:25 32° 96° (E) 08:26:34 435.3500 MHz FM
Sapphire 27 Jul 08:26:18 08:30:55 27° 24° (NNE) 08:35:32 437.095 MHz 1200 baud AX-25 AFSK
